Location: Newark
(40.3500°N, 15.2333°E)
Time: 12:44:06
(UTC+00:00)

Altair - Pass Details

Date: 23 January 2020
Orbit: 1502 x 1682 km, 47.2° (Epoch: 22 February)

Event Time Altitude Azimuth Distance (km) Brightness Sun altitude
Rises 17:00:14 0° 286° (WNW) 4,886 11.2 -10.5°
Reaches altitude 10° 17:06:28 10° 258° (WSW) 3,852 11.2 -11.6°
Maximum altitude 17:09:20 12° 240° (WSW) 3,701 10.8 -12.2°
Drops below altitude 10° 17:12:11 10° 222° (SW) 3,804 10.5 -12.7°
Sets 17:18:18 0° 193° (SSW) 4,735 10.4 -13.8°
